Location: �terpigny
(49.8910°N, 2.9249°E)
Time: 18:50:33
(UTC+00:00)

Gurwin Techsat 1B - Pass Details

Date: 04 July 2022
Orbit: 812 x 813 km, 98.8° (Epoch: 16 August)

Event Time Altitude Azimuth Distance (km) Brightness Sun altitude
Rises 00:50:39 0° 31° (NNE) 3,347 13.3 -16.1°
Reaches altitude 10° 00:54:27 10° 58° (ENE) 2,409 11.7 -15.9°
Maximum altitude 00:56:51 13° 86° (E) 2,195 11.1 -15.8°
Drops below altitude 10° 00:59:15 10° 113° (ESE) 2,400 11.0 -15.7°
Enters shadow 01:02:29 - 138° (SE) 3,172 11.4 -15.6°
